Stündliche Wetter Kysucke Nove Mesto

Heute, 18 Mai, Dienstag

Zeit Temperatur Niederschläge Wind Luftdruck Luftfeuchtigkeit
00:00 +10°C° 1.6 mm 1 m/S 722 mmHg 98%
01:00 +10°C° 0 mm 1 m/S 722 mmHg 98%
02:00 +10°C° 0.6 mm 1 m/S 722 mmHg 98%
03:00 +10°C° 0.6 mm 1 m/S 722 mmHg 98%
04:00 +9°C° 0.6 mm 2 m/S 722 mmHg 98%
05:00 +9°C° 0.4 mm 2 m/S 723 mmHg 98%
06:00 +9°C° 0.4 mm 2 m/S 723 mmHg 98%
07:00 +9°C° 0.4 mm 2 m/S 724 mmHg 97%
08:00 +10°C° 0.2 mm 2 m/S 724 mmHg 95%
09:00 +10°C° 0.2 mm 2 m/S 724 mmHg 92%
10:00 +11°C° 0.2 mm 3 m/S 725 mmHg 90%
11:00 +11°C° 0.5 mm 3 m/S 725 mmHg 88%
12:00 +12°C° 0.5 mm 3 m/S 725 mmHg 85%
13:00 +13°C° 0.5 mm 4 m/S 725 mmHg 83%
14:00 +13°C° 0.5 mm 3 m/S 725 mmHg 83%
15:00 +13°C° 0.5 mm 3 m/S 725 mmHg 83%
16:00 +13°C° 0.5 mm 3 m/S 725 mmHg 83%
17:00 +13°C° 0.2 mm 2 m/S 726 mmHg 86%
18:00 +12°C° 0.2 mm 2 m/S 726 mmHg 88%
19:00 +11°C° 0.2 mm 1 m/S 726 mmHg 91%
20:00 +10°C° 0 mm 1 m/S 726 mmHg 92%
21:00 +9°C° 0 mm 1 m/S 726 mmHg 94%
22:00 +8°C° 0 mm 1 m/S 727 mmHg 95%
23:00 +8°C° 0 mm 1 m/S 727 mmHg 95%

Morgen, 19 Mai, Mittwoch

Zeit Temperatur Niederschläge Wind Luftdruck Luftfeuchtigkeit
00:00 +7°C° 0 mm 0 m/S 727 mmHg 95%
01:00 +6°C° 0 mm 0 m/S 727 mmHg 96%
02:00 +7°C° 0 mm 0 m/S 727 mmHg 96%
03:00 +7°C° 0 mm 0 m/S 727 mmHg 95%
04:00 +7°C° 0 mm 0 m/S 727 mmHg 95%
05:00 +8°C° 0 mm 0 m/S 727 mmHg 93%
06:00 +9°C° 0 mm 0 m/S 727 mmHg 91%
07:00 +10°C° 0 mm 0 m/S 727 mmHg 89%
08:00 +12°C° 0.1 mm 1 m/S 727 mmHg 82%
09:00 +13°C° 0.1 mm 1 m/S 727 mmHg 75%
10:00 +14°C° 0.1 mm 2 m/S 727 mmHg 67%
11:00 +14°C° 0.4 mm 2 m/S 727 mmHg 68%
12:00 +14°C° 0.4 mm 2 m/S 727 mmHg 69%
13:00 +14°C° 0.4 mm 2 m/S 727 mmHg 69%
14:00 +13°C° 0.4 mm 2 m/S 727 mmHg 75%
15:00 +13°C° 0.4 mm 2 m/S 727 mmHg 80%
16:00 +12°C° 0.4 mm 2 m/S 727 mmHg 86%
17:00 +11°C° 0.5 mm 1 m/S 727 mmHg 88%
18:00 +11°C° 0.5 mm 1 m/S 727 mmHg 90%
19:00 +10°C° 0.5 mm 1 m/S 727 mmHg 93%
20:00 +10°C° 0.7 mm 1 m/S 727 mmHg 94%
21:00 +10°C° 0.7 mm 1 m/S 727 mmHg 95%
22:00 +10°C° 0.7 mm 1 m/S 727 mmHg 96%
23:00 +9°C° 0.7 mm 1 m/S 727 mmHg 97%

übermorgen, 20 Mai, Donnerstag

Zeit Temperatur Niederschläge Wind Luftdruck Luftfeuchtigkeit
00:00 +9°C° 0.7 mm 1 m/S 727 mmHg 97%
01:00 +9°C° 0.7 mm 1 m/S 727 mmHg 97%
02:00 +9°C° 0.2 mm 1 m/S 727 mmHg 97%
03:00 +9°C° 0.2 mm 1 m/S 727 mmHg 98%
04:00 +8°C° 0.2 mm 2 m/S 727 mmHg 98%
05:00 +8°C° 0.2 mm 2 m/S 728 mmHg 98%
06:00 +8°C° 0.2 mm 2 m/S 728 mmHg 97%
07:00 +8°C° 0.2 mm 2 m/S 728 mmHg 97%
08:00 +9°C° 0.1 mm 2 m/S 729 mmHg 95%
09:00 +9°C° 0.1 mm 2 m/S 729 mmHg 92%
10:00 +9°C° 0.1 mm 3 m/S 729 mmHg 90%
11:00 +10°C° 0.2 mm 3 m/S 729 mmHg 83%
12:00 +12°C° 0.2 mm 3 m/S 729 mmHg 77%
13:00 +13°C° 0.2 mm 3 m/S 729 mmHg 70%
14:00 +13°C° 0.1 mm 3 m/S 729 mmHg 68%
15:00 +13°C° 0.1 mm 3 m/S 730 mmHg 66%
16:00 +14°C° 0.1 mm 3 m/S 730 mmHg 63%
17:00 +12°C° 0.2 mm 3 m/S 730 mmHg 72%
18:00 +12°C° 0.2 mm 2 m/S 730 mmHg 81%
19:00 +10°C° 0.2 mm 1 m/S 731 mmHg 90%
20:00 +9°C° 0 mm 1 m/S 731 mmHg 92%
21:00 +8°C° 0 mm 1 m/S 732 mmHg 94%
22:00 +8°C° 0 mm 1 m/S 732 mmHg 97%
23:00 +8°C° 0 mm 1 m/S 732 mmHg 97%

21 Mai, Freitag

Zeit Temperatur Niederschläge Wind Luftdruck Luftfeuchtigkeit
00:00 +8°C° 0 mm 1 m/S 732 mmHg 97%
01:00 +8°C° 0 mm 1 m/S 732 mmHg 97%
02:00 +8°C° 0 mm 1 m/S 732 mmHg 97%
03:00 +8°C° 0 mm 1 m/S 732 mmHg 96%
04:00 +8°C° 0 mm 1 m/S 732 mmHg 95%
05:00 +8°C° 0 mm 0 m/S 732 mmHg 89%
06:00 +10°C° 0 mm 0 m/S 732 mmHg 82%
07:00 +11°C° 0 mm 0 m/S 732 mmHg 76%
08:00 +13°C° 0 mm 0 m/S 732 mmHg 66%
09:00 +15°C° 0 mm 0 m/S 732 mmHg 57%
10:00 +19°C° 0 mm 1 m/S 731 mmHg 47%
11:00 +19°C° 0 mm 1 m/S 731 mmHg 45%
12:00 +18°C° 0 mm 2 m/S 730 mmHg 43%
13:00 +19°C° 0 mm 2 m/S 730 mmHg 40%
14:00 +19°C° 0 mm 3 m/S 730 mmHg 42%
15:00 +19°C° 0 mm 3 m/S 729 mmHg 43%
16:00 +18°C° 0 mm 4 m/S 729 mmHg 44%
17:00 +17°C° 0 mm 3 m/S 729 mmHg 55%
18:00 +15°C° 0 mm 2 m/S 729 mmHg 66%
19:00 +13°C° 0 mm 2 m/S 729 mmHg 77%
20:00 +12°C° 0 mm 2 m/S 729 mmHg 80%
21:00 +10°C° 0 mm 2 m/S 729 mmHg 83%
22:00 +9°C° 0 mm 2 m/S 728 mmHg 86%
23:00 +9°C° 0 mm 2 m/S 728 mmHg 87%

22 Mai, Samstag

Zeit Temperatur Niederschläge Wind Luftdruck Luftfeuchtigkeit
00:00 +9°C° 0 mm 2 m/S 728 mmHg 87%
01:00 +8°C° 0 mm 2 m/S 727 mmHg 88%
02:00 +8°C° 0 mm 2 m/S 727 mmHg 89%
03:00 +8°C° 0 mm 2 m/S 726 mmHg 90%
04:00 +8°C° 0 mm 2 m/S 726 mmHg 91%
05:00 +10°C° 0 mm 3 m/S 725 mmHg 82%
06:00 +12°C° 0 mm 3 m/S 725 mmHg 72%
07:00 +14°C° 0 mm 4 m/S 724 mmHg 63%
08:00 +15°C° 0 mm 5 m/S 724 mmHg 59%
09:00 +16°C° 0 mm 6 m/S 724 mmHg 55%
10:00 +17°C° 0 mm 6 m/S 724 mmHg 52%
11:00 +17°C° 0.1 mm 6 m/S 724 mmHg 59%
12:00 +16°C° 0.1 mm 5 m/S 724 mmHg 66%
13:00 +15°C° 0.1 mm 5 m/S 724 mmHg 73%
14:00 +14°C° 0.5 mm 4 m/S 724 mmHg 80%
15:00 +13°C° 0.5 mm 3 m/S 724 mmHg 87%
16:00 +12°C° 0.5 mm 3 m/S 724 mmHg 95%
17:00 +13°C° 1.6 mm 2 m/S 725 mmHg 96%
18:00 +12°C° 1.6 mm 2 m/S 725 mmHg 97%
19:00 +12°C° 1.6 mm 1 m/S 726 mmHg 98%
20:00 +11°C° 0.8 mm 1 m/S 726 mmHg 97%
21:00 +11°C° 0.8 mm 1 m/S 727 mmHg 97%
22:00 +10°C° 0.8 mm 1 m/S 727 mmHg 97%
23:00 +10°C° 0.3 mm 1 m/S 727 mmHg 96%

23 Mai, Sonntag

Zeit Temperatur Niederschläge Wind Luftdruck Luftfeuchtigkeit
00:00 +10°C° 0.3 mm 1 m/S 727 mmHg 96%
01:00 +10°C° 0.3 mm 1 m/S 728 mmHg 96%
02:00 +9°C° 0 mm 1 m/S 728 mmHg 95%
03:00 +9°C° 0 mm 1 m/S 728 mmHg 95%
04:00 +8°C° 0 mm 1 m/S 728 mmHg 95%
05:00 +9°C° 0 mm 1 m/S 728 mmHg 92%
06:00 +10°C° 0 mm 1 m/S 728 mmHg 88%
07:00 +11°C° 0 mm 1 m/S 729 mmHg 84%
08:00 +13°C° 0.1 mm 2 m/S 729 mmHg 76%
09:00 +13°C° 0.1 mm 3 m/S 729 mmHg 68%
10:00 +14°C° 0.1 mm 3 m/S 729 mmHg 60%
11:00 +14°C° 0.2 mm 4 m/S 729 mmHg 61%
12:00 +15°C° 0.2 mm 4 m/S 729 mmHg 61%
13:00 +15°C° 0.2 mm 4 m/S 729 mmHg 62%
14:00 +14°C° 0.4 mm 4 m/S 729 mmHg 68%
15:00 +13°C° 0.4 mm 3 m/S 730 mmHg 75%
16:00 +13°C° 0.4 mm 3 m/S 730 mmHg 81%
17:00 +13°C° 0.2 mm 2 m/S 730 mmHg 85%
18:00 +12°C° 0.2 mm 2 m/S 730 mmHg 89%
19:00 +11°C° 0.2 mm 1 m/S 731 mmHg 92%
20:00 +10°C° 0 mm 1 m/S 731 mmHg 93%
21:00 +9°C° 0 mm 1 m/S 732 mmHg 94%
22:00 +8°C° 0 mm 1 m/S 732 mmHg 95%
23:00 +8°C° 0 mm 1 m/S 732 mmHg 95%
Mehr zeigen

Wir brauchen deine Erlaubnis

Meteoprog und unser Service Anbieter werden persönliche Daten aufbewahren, so wie Cookies, Geräte Bezeichnung oder ähnliche Technologien von deinem Gerät und Prozess, so wie Persönliche Daten Inhalte und Werbungen, genauso wie social Media und den Verkehr zu analysieren.

  • Aufbewahrung und/oder Zugang zu deiner Geräte Informationen.

    Cookies, Geräte Bezeichnung oder andere Informationen, können aufbewahrt oder Zugang zu deinem Gerät erhalten, für den Grund, der oben angegeben wird.

  • Personalisierte Werbung und Inhalte, Messungen, Einblick in das Publikum und Produkt Entwicklung.

    Werbungen und Inhalte können personalisiert werden, basierend auf ein Profil. Mehr Daten können besser personalisierte Werbungen und Inhalte hinzufügen. Werbung und Inhalte können gezeigt und gemessen werden. Einblicke über das Publikum, welche die Werbung gesehen haben und den Inhalt, können abgeleitet werden. So wie Daten können genutzt werden, um es zu verbessern oder die Benutzer Erfahrung zu verbessern das System und die Software.

Wenn du “Ich stimme zu” klickst, erlaubst du uns, die Cookies zu benutzen die Geräte Bezeichnung, den Web oder ähnliche Technologien zu benutzen. Deine Settings, können in deinem Gerät bei deinem Browser geändert werden.

Für den bestimmten Zweck, berechtigten Interessen beruhen darauf, mehr als auf den Inhalt. Du kannst mehr darüber in unseren Privaten und Cookie Politik lesen.